Content
SEND FEEDBACK

Daily
Averages
Monthly
Summary
United States of America

GREENFIELD, MASSACHUSETTS


Home > North America > United States > Massachusetts
Elevation: 190 feet     Latitude: 42 37N     Longitude: 072 33W

WEATHER
 
SELECT A DAY
Number of Records: 216,002;   Date Range: 7/1/96 - 10/29/14
 
SHARE

PRINT THIS DATA

[ ← Previous Day ]
WEATHER ALMANAC - APRIL 7, 2014
[ Next Day → ]
[ °C ]   °F
Weather ElementAverageHighLow
Temperature42.9 °F55.9 °F (11:52 am)27 °F (5:52 am)
Dewpoint25.3 °F39 °F (11:25 pm)16 °F (8:52 pm)
Humidity57.8 %97 % (11:25 pm)25 % (5:52 pm)
Barometer30.11 in30.23 in (7:52 am)29.88 in (11:52 pm)
Wind Speed4.2 mph12.7 mph (12:52 pm)
Weather ElementAverage
Visibility9.5 mi
Wind DirectionENE (80.4 °)

Weather ElementTotal
Precipitation0.12 in
Heating Degree Days23.6 (Base 65)
Averaged from 24 records on April 7, 2014
WEATHER CONDITIONS BREAKOUT
WIND DIRECTION BREAKOUT
WEATHER BY HOUR - APRIL 7, 2014
[ °C ]   °F
Local TimeTemperatureDewpointHumidityBarometerVisibilityWind DirectionWind SpeedGust SpeedPrecipitationEventsConditions
1:52 AM28.9 °F25.0 °F85 %30.21 in10.0 miNE (50°)3.5 mphClear
2:52 AM28.9 °F26.1 °F89 %30.20 in10.0 miCalmClear
3:52 AM28.0 °F25.0 °F88 %30.21 in10.0 miCalmClear
4:52 AM28.0 °F24.1 °F85 %30.19 in10.0 miCalmClear
5:52 AM27.0 °F25.0 °F92 %30.20 in10.0 miCalmClear
6:52 AM27.0 °F24.1 °F89 %30.21 in10.0 miCalmClear
7:52 AM32.0 °F27.0 °F82 %30.23 in10.0 miCalmClear
8:52 AM37.9 °F27.0 °F65 %30.23 in10.0 miCalmClear
9:52 AM44.1 °F26.1 °F49 %30.22 in10.0 miCalmClear
10:52 AM52.0 °F26.1 °F37 %30.20 in10.0 miSSW (210°)6.9 mphClear
11:52 AM55.9 °F23.0 °F28 %30.19 in10.0 miSouth (190°)10.4 mphClear
12:52 PM55.9 °F23.0 °F28 %30.19 in10.0 miSouth (180°)12.7 mphClear
1:52 PM55.9 °F21.0 °F26 %30.14 in10.0 miSouth (180°)8.1 mphClear
2:52 PM55.9 °F21.0 °F26 %30.11 in10.0 miSouth (190°)11.5 mphClear
3:52 PM55.0 °F21.0 °F27 %30.09 in10.0 miSouth (190°)12.7 mphMostly Cloudy
4:52 PM53.1 °F19.9 °F27 %30.09 in10.0 miSSE (150°)4.6 mphOvercast
5:52 PM53.1 °F18.0 °F25 %30.07 in10.0 miSSE (160°)6.9 mphOvercast
6:52 PM50.0 °F19.9 °F31 %30.05 in10.0 miESE (110°)5.8 mphOvercast
7:52 PM48.9 °F18.0 °F29 %30.01 in10.0 miEast (80°)9.2 mphOvercast
8:52 PM48.0 °F16.0 °F28 %30.01 in10.0 miSSE (150°)4.6 mphOvercast
9:52 PM42.1 °F36.0 °F79 %29.99 in8.0 miCalm0.02 inRainLight Rain
10:52 PM41.0 °F37.0 °F86 %29.93 in10.0 miCalm0.04 inRainLight Rain
11:25 PM39.9 °F39.0 °F97 %29.89 in3.0 miEast (90°)3.5 mph0.03 inRainRain
11:52 PM41.0 °F37.9 °F89 %29.88 in8.0 miCalm0.03 inRainLight Rain
Hourly data recorded from KORE, located miles away from Greenfield, Massachusetts







STORIES FROM OUR PARTNERS